Location: Wald
(31.7579°N, 86.6655°W)
Time: 21:03:59
(UTC+00:00)

Meteor 2-11 Rocket - Pass Details

Date: 14 July 2020
Orbit: 939 x 957 km, 82.5° (Epoch: 13 August)

Event Time Altitude Azimuth Distance (km) Brightness Sun altitude
Exits shadow 08:44:47 46° 222° (SW) 1,237 4.6 -22.6°
Maximum altitude 08:46:23 63° 277° (W) 1,048 4.4 -22.4°
Drops below altitude 10° 08:52:24 10° 359° (N) 2,659 7.4 -21.5°
Sets 08:54:56 0° 2° (N) 3,606 8.2 -21.1°
